Location: Croisilles
(50.1998°N, 2.8793°E)
Time: 02:38:54
(UTC+00:00)

ATLAS 5 CENTAUR R/B - Pass Details

Date: 21 January 2021
Orbit: 511 x 1147 km, 63.3° (Epoch: 16 February)

Event Time Altitude Azimuth Distance (km) Brightness Sun altitude
Rises 18:20:28 0° 252° (WSW) 2,704 6.5 -18.3°
Reaches altitude 10° 18:22:42 10° 262° (W) 1,868 5.3 -18.6°
Maximum altitude 18:26:32 34° 329° (NNW) 1,025 2.8 -19.2°
Enters shadow 18:29:05 20° 21° (NNE) 1,521 3.3 -19.6°
